Wind_Speed
9 7 5 4 4 4 4 5 5 6 7 7 8 9 9 10 10 11 12 13 13 14 14 15 16 17 18 19 20 21 22 23 23 24 25 25 25 25 26 26 26 25 24 23
8 6 5 3 2 2 2 3 3 4 5 6 7 8 9 10 10 11 12 12 13 14 15 15 16 17 18 19 20 21 22 23 24 24 25 25 26 26 27 27 27 27 26 25
8 6 5 3 2 1 1 2 3 4 5 6 7 8 9 10 11 12 12 13 14 15 16 17 17 18 19 20 21 22 23 23 24 24 25 26 26 26 27 28 28 29 28 26
8 7 6 5 4 4 4 4 4 5 6 8 9 10 11 12 12 13 14 15 16 16 17 18 19 19 20 21 21 22 23 23 24 24 25 26 27 27 27 28 29 29 29 28
9 8 7 7 6 6 6 7 7 8 9 10 11 12 12 13 14 15 16 17 17 18 18 19 20 20 21 21 22 22 23 24 24 25 25 26 26 27 28 28 29 29 30 30
10 9 9 9 9 9 9 9 10 11 12 12 13 14 15 15 16 17 18 18 19 19 20 20 21 21 21 22 22 23 24 24 24 25 25 26 26 27 27 28 28 29 30 30
12 12 11 11 11 12 13 13 14 14 14 15 16 16 17 17 17 18 18 19 20 20 20 21 21 22 22 22 23 23 24 24 25 25 25 25 26 26 27 28 28 28 29 29
15 15 14 14 15 15 16 16 16 16 16 17 17 17 18 18 19 19 19 20 20 21 21 22 22 22 23 23 23 23 24 24 25 25 25 25 26 26 26 27 27 27 28 28
17 17 17 17 17 17 17 18 18 18 18 18 19 19 19 19 19 20 20 21 22 22 23 23 23 24 24 24 24 24 24 24 25 25 25 25 25 26 26 26 26 27 27 27
19 19 19 19 19 19 19 19 19 20 20 20 20 20 20 21 21 21 22 22 23 24 25 25 26 25 25 25 24 25 25 25 25 25 25 25 25 26 26 26 26 26 26 25
21 21 21 21 21 21 21 21 21 21 21 21 22 22 22 22 23 24 24 25 26 27 28 28 29 28 27 26 26 26 26 26 26 26 25 25 25 25 25 25 25 25 25 24
23 23 23 23 23 23 23 23 23 23 23 23 24 24 25 26 26 27 28 29 30 31 31 32 32 32 31 29 28 28 28 28 27 27 27 26 26 26 26 25 25 25 24 24
26 25 25 25 25 25 25 25 25 25 26 26 27 28 29 30 31 32 33 33 34 35 35 35 35 35 33 32 31 30 30 30 30 29 29 28 27 27 26 26 25 25 24 23
28 28 28 27 28 28 28 28 29 29 30 30 31 32 33 34 35 36 37 38 38 38 38 37 37 36 35 35 34 33 32 32 32 31 31 30 30 29 28 27 26 26 25 24
31 31 31 31 31 31 32 32 32 33 34 35 36 37 38 39 39 40 40 40 39 39 38 38 37 37 36 36 35 35 34 34 34 33 33 33 32 32 31 30 29 28 27 25
35 34 34 34 35 35 35 36 36 37 38 39 40 41 41 41 41 41 40 40 39 38 37 37 37 37 36 36 36 35 35 35 35 34 34 35 35 34 34 33 32 31 30 29
37 37 38 39 39 39 39 40 41 42 43 43 44 43 43 42 42 41 40 38 37 36 35 35 35 35 35 35 36 35 36 36 36 36 36 36 36 37 37 36 35 35 34 33
41 41 42 42 43 43 43 44 45 46 46 46 45 44 43 43 42 40 38 37 36 35 35 35 35 35 35 35 36 36 37 37 37 37 37 37 38 38 39 39 39 39 38 37
44 45 45 46 47 47 47 48 48 48 47 46 45 44 43 41 39 38 36 36 36 36 36 36 36 37 37 37 38 38 39 39 39 39 40 40 40 41 41 41 42 42 42 42
48 48 49 49 49 49 50 49 48 48 46 45 44 42 40 38 37 36 36 36 36 36 37 37 38 39 39 40 41 42 42 42 43 43 44 44 44 44 45 45 45 46 46 46
51 51 51 50 50 50 49 48 47 46 45 43 41 39 38 37 37 37 37 37 37 38 39 39 40 41 42 42 43 44 45 46 46 47 48 48 48 49 49 49 50 50 50 51
52 52 52 51 50 49 48 47 45 44 42 41 39 39 38 38 38 38 38 39 40 41 42 42 43 44 45 46 47 48 48 49 50 51 52 52 52 53 53 54 54 55 55 55
50 50 50 50 48 47 45 44 42 41 40 39 39 39 39 39 39 40 40 41 43 44 44 45 46 47 48 49 50 51 52 53 54 55 56 56 57 57 57 58 58 58 59 60
43 44 44 44 43 42 41 40 40 39 39 39 39 39 40 40 41 42 43 44 45 46 47 48 49 50 51 53 54 55 57 58 59 59 60 60 61 61 60 60 60 61 61 62
36 36 37 37 37 37 37 37 38 38 38 39 39 40 41 42 43 44 45 46 47 48 49 50 52 53 54 56 57 59 60 61 62 62 63 63 62 62 61 61 61 61 61 62
33 34 34 35 35 35 36 37 37 38 38 39 41 42 43 44 45 46 47 48 49 50 51 52 53 55 56 58 59 61 62 62 63 63 63 63 62 62 61 60 60 59 58 58
34 35 35 35 36 37 37 38 38 39 40 41 43 44 45 45 46 47 48 49 50 51 52 54 55 57 58 59 60 61 62 62 62 62 61 61 61 61 60 59 58 57 56 55
Wind_Direction
162 156 146 132 115 96 80 68 56 43 34 28 25 22 20 18 16 15 14 14 12 11 9 7 6 6 6 6 6 6 6 6 6 7 7 6 6 4 3 360 356 352 348 342
172 170 167 159 140 113 78 58 44 31 20 15 10 9 8 6 4 3 2 2 3 2 1 359 357 356 356 356 357 357 357 359 359 0 1 1 1 1 1 0 359 356 351 347
185 190 195 201 216 242 300 339 351 355 356 355 354 353 352 351 350 350 350 350 350 350 349 349 348 347 347 348 349 350 351 353 354 355 356 357 358 357 358 358 359 358 356 352
198 206 217 230 244 264 284 297 310 321 327 331 334 337 338 339 341 342 342 341 341 341 341 340 341 341 341 342 343 344 345 347 349 351 352 353 355 356 356 357 358 358 358 356
212 221 232 240 252 270 283 292 298 306 313 318 323 326 328 330 332 333 334 335 335 335 335 335 335 336 336 337 339 340 341 342 343 345 347 349 351 353 355 356 358 358 359 359
227 236 243 250 261 272 281 287 292 299 305 311 316 319 322 323 324 325 326 328 329 330 331 331 332 333 333 334 334 336 337 339 340 341 343 345 347 350 352 354 356 358 359 0
241 248 253 257 264 272 278 284 289 295 301 306 310 313 315 317 318 320 322 324 325 326 327 328 328 329 331 333 334 334 335 336 337 338 339 341 343 345 348 351 353 355 358 0
248 254 257 261 266 271 277 283 288 293 297 301 304 307 310 313 316 318 320 322 323 323 324 325 325 326 328 329 330 331 332 333 334 336 336 338 339 342 344 347 350 352 355 358
252 258 262 264 268 272 277 282 286 290 294 297 301 305 308 311 314 316 317 318 319 320 321 322 322 323 324 325 326 327 328 329 330 331 333 335 336 338 340 343 345 349 352 355
256 259 263 267 270 273 277 281 284 288 292 295 299 302 305 308 310 311 313 315 316 316 317 317 317 317 319 320 321 321 322 324 325 326 327 329 331 333 336 338 341 344 347 350
258 261 264 266 269 273 276 279 282 285 289 293 296 299 301 304 306 308 309 310 311 311 312 312 312 312 312 313 314 314 315 316 317 319 321 323 325 327 329 332 335 338 340 344
259 261 263 266 269 271 274 277 280 284 287 290 292 295 298 300 302 304 305 306 306 306 306 306 306 306 307 307 307 307 308 309 310 311 313 315 317 320 322 324 327 330 333 336
260 262 263 265 268 270 273 276 279 282 285 288 291 293 296 298 300 301 302 302 302 302 302 302 302 302 303 303 303 302 302 303 304 305 306 307 309 311 313 315 318 321 324 327
261 262 264 266 268 270 273 276 279 282 285 288 290 293 295 297 298 299 299 299 298 298 298 298 298 298 299 299 300 299 299 298 299 299 300 301 302 303 304 306 308 311 314 316
260 262 264 266 269 271 273 276 279 282 285 288 290 292 294 295 296 296 297 296 295 295 295 295 295 296 296 297 298 298 297 296 296 296 295 295 295 296 297 298 299 301 303 305
260 263 265 267 269 271 273 276 279 282 285 287 289 291 292 294 294 295 295 294 293 293 293 293 294 295 296 296 297 297 297 297 296 295 294 292 292 291 291 292 292 293 294 296
260 262 263 265 268 271 273 276 279 282 284 286 288 290 291 293 293 294 293 292 292 292 292 292 293 294 295 296 297 297 297 297 297 296 294 293 291 290 288 287 287 287 287 287
258 260 263 265 267 270 272 275 278 281 283 285 287 289 291 292 292 292 291 291 291 292 292 292 293 294 295 296 297 297 297 297 296 295 294 293 291 289 287 286 284 282 281 280
257 259 261 264 266 269 272 274 277 279 282 283 285 287 289 289 289 289 289 290 291 293 293 294 295 296 297 298 298 298 298 298 297 296 295 293 291 289 287 285 282 280 278 276
257 259 261 263 265 268 271 273 276 278 280 281 283 284 285 285 286 286 287 288 290 291 292 294 295 296 297 298 299 299 299 299 298 297 296 294 292 290 287 284 282 279 276 274
255 257 259 262 265 267 269 271 274 275 277 278 279 281 282 283 284 285 287 288 289 291 292 294 295 296 297 298 298 299 299 298 298 297 296 294 292 290 288 285 282 279 275 272
252 255 257 260 263 265 267 269 270 272 274 275 277 278 280 282 283 284 286 288 290 292 293 294 295 297 298 298 299 299 299 299 298 298 297 295 294 291 289 286 283 279 275 271
251 253 255 258 260 262 264 265 267 269 271 273 275 277 279 281 282 284 286 288 291 292 294 295 296 297 299 299 300 300 300 300 300 299 298 297 296 293 291 288 284 280 276 271
251 252 254 255 258 260 262 264 266 268 270 272 274 276 279 281 283 285 287 290 292 293 295 296 298 299 300 301 301 302 302 302 302 301 301 300 298 296 294 291 287 283 278 272
249 250 251 253 255 258 260 262 264 267 270 272 275 277 280 282 284 287 289 291 293 294 296 298 299 301 302 302 303 304 304 304 304 303 303 302 300 299 297 294 291 286 281 275
247 248 250 253 255 258 260 263 265 268 271 274 276 279 281 283 285 288 290 292 294 296 298 299 301 302 303 304 305 305 305 305 305 305 304 303 303 302 300 298 295 291 286 280
248 250 252 254 257 260 262 265 267 270 273 276 278 280 283 285 287 289 292 294 296 298 300 301 303 304 305 306 306 306 306 306 306 306 305 305 305 304 303 301 299 295 291 286
Height
5877 5878 5879 5879 5880 5879 5879 5879 5878 5878 5876 5875 5873 5871 5869 5867 5865 5863 5861 5858 5855 5852 5849 5846 5842 5839 5835 5831 5827 5823 5818 5814 5809 5804 5799 5794 5789 5784 5778 5773 5767 5761 5755 5749
5876 5877 5878 5878 5879 5879 5879 5878 5878 5877 5876 5874 5873 5871 5869 5867 5865 5863 5861 5858 5855 5852 5849 5846 5842 5839 5835 5831 5827 5823 5818 5814 5809 5804 5799 5794 5789 5783 5778 5772 5765 5759 5753 5747
5875 5876 5877 5878 5878 5878 5878 5877 5877 5876 5876 5874 5872 5871 5869 5867 5865 5862 5860 5857 5854 5851 5848 5845 5841 5838 5834 5830 5826 5822 5817 5813 5808 5803 5798 5793 5788 5782 5777 5771 5764 5758 5751 5744
5873 5875 5876 5878 5876 5876 5876 5876 5875 5875 5874 5872 5871 5869 5867 5865 5863 5861 5858 5856 5853 5850 5846 5843 5840 5836 5832 5828 5824 5820 5816 5811 5807 5802 5797 5792 5787 5781 5776 5769 5763 5757 5750 5743
5872 5872 5873 5874 5874 5874 5874 5874 5873 5872 5871 5870 5869 5867 5866 5863 5861 5859 5856 5854 5851 5848 5844 5841 5837 5834 5830 5826 5822 5818 5814 5810 5805 5800 5796 5791 5786 5780 5774 5768 5762 5755 5749 5742
5869 5870 5871 5873 5872 5871 5872 5871 5870 5869 5869 5867 5866 5865 5864 5861 5858 5856 5854 5851 5848 5845 5842 5839 5835 5831 5828 5824 5820 5816 5812 5808 5803 5798 5794 5789 5784 5779 5773 5767 5761 5755 5748 5741
5865 5866 5867 5868 5867 5868 5869 5869 5867 5866 5865 5864 5863 5862 5860 5857 5855 5853 5850 5847 5845 5842 5839 5836 5832 5829 5825 5821 5817 5813 5809 5805 5801 5796 5791 5787 5782 5777 5771 5766 5760 5754 5748 5741
5861 5862 5865 5863 5863 5864 5864 5863 5862 5861 5861 5860 5858 5857 5855 5853 5851 5849 5846 5844 5841 5838 5835 5832 5829 5825 5822 5818 5814 5810 5806 5802 5798 5793 5789 5784 5780 5775 5770 5764 5759 5753 5747 5741
5858 5860 5859 5858 5858 5858 5858 5858 5857 5856 5856 5854 5853 5852 5850 5848 5846 5844 5842 5839 5836 5833 5830 5827 5824 5821 5818 5815 5811 5807 5803 5799 5795 5790 5786 5782 5777 5772 5768 5763 5757 5752 5747 5741
5851 5852 5852 5852 5852 5852 5852 5852 5851 5851 5850 5849 5848 5846 5845 5843 5841 5839 5837 5834 5831 5828 5825 5822 5819 5816 5813 5810 5806 5802 5799 5795 5791 5787 5783 5778 5774 5770 5765 5760 5756 5751 5746 5740
5845 5846 5846 5846 5846 5846 5846 5846 5845 5845 5844 5843 5842 5840 5839 5837 5835 5833 5831 5828 5825 5822 5819 5816 5813 5810 5807 5804 5801 5797 5793 5789 5786 5782 5778 5774 5770 5766 5762 5758 5753 5749 5744 5739
5838 5839 5840 5840 5839 5839 5839 5839 5838 5838 5837 5836 5835 5834 5832 5830 5828 5826 5824 5821 5818 5815 5812 5808 5805 5802 5799 5797 5794 5790 5787 5783 5780 5777 5773 5769 5766 5762 5758 5754 5750 5746 5742 5738
5830 5831 5831 5832 5832 5832 5832 5831 5831 5830 5830 5829 5827 5826 5824 5822 5820 5818 5815 5813 5810 5807 5803 5800 5796 5793 5790 5788 5785 5782 5779 5776 5773 5770 5767 5763 5760 5757 5753 5750 5746 5743 5739 5735
5822 5822 5823 5823 5824 5824 5823 5823 5822 5822 5821 5820 5819 5817 5815 5813 5811 5809 5806 5803 5800 5797 5794 5790 5787 5784 5781 5778 5776 5773 5770 5767 5765 5762 5759 5756 5753 5750 5747 5744 5741 5738 5735 5732
5813 5813 5814 5814 5814 5814 5814 5814 5813 5812 5811 5810 5809 5807 5805 5803 5801 5798 5795 5792 5789 5786 5783 5780 5777 5774 5771 5768 5766 5763 5760 5758 5755 5753 5750 5747 5745 5742 5740 5737 5734 5732 5729 5727
5803 5803 5804 5804 5804 5804 5804 5804 5803 5802 5801 5800 5798 5796 5794 5792 5790 5787 5784 5781 5778 5775 5772 5769 5766 5763 5760 5758 5755 5753 5750 5747 5745 5742 5740 5738 5735 5733 5731 5728 5726 5724 5722 5720
5792 5792 5793 5793 5793 5793 5793 5793 5792 5791 5790 5788 5787 5785 5783 5780 5778 5775 5772 5769 5766 5764 5761 5759 5756 5753 5750 5748 5745 5743 5740 5737 5734 5732 5729 5727 5724 5722 5720 5718 5716 5715 5713 5711
5780 5780 5781 5781 5781 5781 5781 5780 5780 5779 5777 5776 5774 5772 5770 5768 5765 5763 5760 5757 5755 5753 5751 5748 5746 5743 5740 5738 5735 5732 5729 5726 5724 5721 5718 5716 5713 5711 5709 5707 5705 5703 5702 5701
5766 5767 5768 5768 5768 5768 5768 5767 5766 5765 5764 5763 5761 5760 5758 5755 5753 5751 5749 5747 5744 5742 5739 5737 5734 5732 5729 5726 5723 5720 5717 5714 5711 5708 5706 5703 5701 5698 5696 5694 5692 5690 5689 5688
5752 5753 5753 5754 5754 5754 5754 5753 5753 5752 5751 5750 5748 5747 5745 5743 5742 5740 5738 5736 5734 5731 5729 5726 5723 5720 5717 5714 5711 5707 5704 5701 5698 5695 5692 5689 5686 5683 5681 5679 5677 5675 5674 5673
5735 5737 5738 5738 5739 5739 5739 5739 5739 5739 5738 5737 5736 5735 5733 5732 5730 5728 5726 5724 5723 5720 5717 5715 5712 5708 5705 5701 5698 5694 5691 5687 5683 5680 5676 5673 5670 5667 5664 5661 5659 5658 5656 5655
5718 5720 5722 5723 5724 5725 5725 5725 5725 5725 5725 5724 5723 5723 5721 5720 5719 5717 5715 5713 5710 5707 5705 5702 5698 5695 5691 5687 5684 5680 5675 5671 5667 5663 5659 5655 5652 5648 5645 5642 5639 5637 5635 5634
5702 5704 5707 5708 5710 5710 5711 5712 5712 5712 5712 5712 5711 5710 5709 5708 5706 5705 5702 5700 5697 5694 5691 5688 5684 5680 5676 5672 5668 5663 5658 5654 5649 5645 5640 5636 5631 5627 5623 5619 5616 5613 5611 5610
5688 5690 5692 5694 5696 5697 5698 5699 5699 5699 5699 5699 5699 5698 5697 5695 5694 5692 5689 5687 5684 5680 5677 5673 5669 5665 5660 5655 5650 5645 5640 5635 5629 5624 5619 5613 5608 5603 5599 5595 5591 5587 5585 5583
5675 5677 5679 5681 5683 5684 5685 5686 5687 5687 5687 5687 5686 5685 5684 5683 5681 5678 5676 5673 5669 5666 5662 5658 5653 5648 5643 5638 5632 5626 5620 5614 5608 5602 5596 5591 5585 5579 5574 5569 5564 5560 5557 5554
5664 5666 5668 5670 5671 5672 5673 5674 5674 5675 5675 5674 5674 5673 5671 5669 5667 5665 5662 5658 5654 5650 5646 5642 5637 5632 5626 5620 5613 5607 5601 5594 5587 5581 5574 5568 5561 5555 5549 5544 5538 5533 5529 5526
5653 5655 5657 5658 5659 5660 5661 5662 5662 5662 5662 5661 5660 5659 5657 5655 5653 5650 5647 5643 5639 5635 5630 5625 5620 5614 5608 5602 5595 5588 5581 5574 5567 5560 5553 5546 5539 5533 5526 5520 5514 5508 5503 5499